EW9934 Weather Reports


time (UTC)temp
C
wind
direction
speed
KPH
gust
KPH
rain 1hr
cm
rain 24hr
cm
rain mn
cm
humidity
%
barometer
mb
20260507030025 12 108 0.0 0.0 0.00 0.00 0.00 73 1018.4
20260507024623 13 108 0.0 0.0 0.00 0.00 0.00 73 1018.4
20260507023020 13 108 0.0 3.2 0.00 0.00 0.00 68 1018.4
20260507021518 15 128 0.0 11.3 0.00 0.00 0.00 68 1018.4
20260507020038 15 89 0.0 8.0 0.00 0.00 0.00 65 1018.4
20260507014514 16 84 4.8 12.9 0.00 0.00 0.00 62 1018.4
20260507013017 17 100 3.2 14.5 0.00 0.00 0.00 59 1018.4
20260507011513 20 58 4.8 16.1 0.00 0.00 0.00 39 1018.4
20260507010008 20 280 1.6 6.4 0.00 0.00 0.00 32 1018.4
20260507004506 21 126 3.2 11.3 0.00 0.00 0.00 31 1018.3
20260507003005 21 294 4.8 16.1 0.00 0.00 0.00 30 1018.4
20260507001505 21 264 1.6 8.0 0.00 0.00 0.00 31 1018.6
20260506234557 21 103 1.6 12.9 0.00 0.00 0.00 35 1018.3
20260506233054 21 283 3.2 14.5 0.00 0.00 0.00 34 1018.4
20260506231559 21 273 3.2 9.7 0.00 0.00 0.00 34 1018.6
20260506230054 21 111 1.6 11.3 0.00 0.00 0.00 39 1018.9
20260506224543 21 96 1.6 14.5 0.00 0.00 0.00 38 1019.0
20260506223039 21 231 4.8 11.3 0.00 0.00 0.00 37 1019.1
20260506221539 21 264 6.4 12.9 0.00 0.00 0.00 37 1019.2
20260506220036 21 241 1.6 9.7 0.00 0.00 0.00 41 1019.6
20260506214530 20 279 3.2 16.1 0.00 0.00 0.00 40 1019.7
20260506213028 21 260 6.4 12.9 0.00 0.00 0.00 36 1019.9
20260506211524 20 71 3.2 12.9 0.00 0.00 0.00 42 1020.2
20260506210044 20 349 1.6 8.0 0.00 0.00 0.00 42 1020.4
20260506204519 20 274 1.6 12.9 0.00 0.00 0.00 43 1020.6
20260506203016 20 193 3.2 14.5 0.00 0.00 0.00 43 1020.8
20260506201519 19 285 4.8 14.5 0.00 0.00 0.00 42 1020.9
20260506200011 18 130 3.2 20.9 0.00 0.00 0.00 42 1021.2
20260506194507 18 39 1.6 12.9 0.00 0.00 0.00 44 1021.3
20260506193002 18 335 1.6 16.1 0.00 0.00 0.00 42 1021.2
20260506191559 17 104 1.6 9.7 0.00 0.00 0.00 49 1021.5
20260506190056 16 36 3.2 14.5 0.00 0.00 0.00 49 1021.6
20260506184554 17 114 3.2 14.5 0.00 0.00 0.00 49 1021.7
20260506183058 16 88 6.4 19.3 0.00 0.00 0.00 48 1021.8
20260506181553 16 78 3.2 11.3 0.00 0.00 0.00 48 1021.8
20260506180045 15 100 6.4 20.9 0.00 0.00 0.00 49 1021.8
20260506174540 15 90 4.8 9.7 0.00 0.03 0.00 52 1021.7
20260506173043 14 51 1.6 17.7 0.00 0.03 0.00 52 1021.7
20260506171535 13 112 1.6 8.0 0.00 0.03 0.00 57 1021.6
20260506170031 13 53 1.6 9.7 0.00 0.03 0.00 57 1021.6
20260506164543 13 107 1.6 6.4 0.00 0.05 0.00 57 1021.6
20260506163025 13 69 1.6 8.0 0.00 0.05 0.00 59 1021.5
20260506161523 13 110 1.6 9.7 0.00 0.05 0.00 58 1021.5
20260506160020 13 21 0.0 1.6 0.00 0.05 0.00 53 1021.3
20260506154516 12 131 0.0 3.2 0.00 0.08 0.00 56 1021.4
20260506153012 12 239 0.0 0.0 0.00 0.08 0.00 63 1021.4
20260506151507 11 243 0.0 1.6 0.00 0.08 0.00 70 1021.5
20260506150002 9 260 0.0 0.0 0.00 0.13 0.00 76 1021.6
20260506144555 7 265 0.0 0.0 0.00 0.13 0.00 87 1021.6
20260506143050 5 265 0.0 0.0 0.00 0.13 0.00 87 1021.5
20260506141546 5 265 0.0 3.2 0.00 0.13 0.00 88 1021.3
20260506140039 3 274 0.0 1.6 0.00 0.13 0.00 93 1021.3
20260506134536 2 274 0.0 0.0 0.00 0.25 0.00 93 1021.1
20260506133038 2 274 0.0 1.6 0.00 0.25 0.00 93 1020.9
20260506131531 2 274 0.0 1.6 0.00 0.25 0.00 92 1020.8
20260506130028 2 276 0.0 0.0 0.00 0.25 0.00 93 1020.6
20260506124525 2 274 0.0 0.0 0.00 0.33 0.00 93 1020.6
20260506123022 2 269 0.0 0.0 0.00 0.33 0.00 94 1020.4
20260506121522 2 269 0.0 3.2 0.00 0.33 0.00 94 1020.4
20260506120034 2 275 1.6 1.6 0.00 0.33 0.00 95 1020.4
20260506114519 2 274 1.6 3.2 0.00 0.36 0.00 96 1020.1
20260506113012 2 270 0.0 0.0 0.00 0.36 0.00 97 1020.0
20260506111510 2 263 0.0 0.0 0.00 0.36 0.00 97 1020.1
20260506110009 2 262 0.0 0.0 0.00 0.36 0.00 97 1020.0
20260506104504 2 262 0.0 0.0 0.00 0.36 0.00 97 1020.0
20260506103008 2 262 0.0 0.0 0.00 0.36 0.00 96 1019.9
20260506101600 2 262 0.0 0.0 0.00 0.36 0.00 96 1019.6
20260506100111 2 262 0.0 0.0 0.00 0.36 0.00 96 1019.7
20260506094601 2 252 0.0 0.0 0.00 0.36 0.00 96 1019.6
20260506093052 2 231 0.0 1.6 0.00 0.36 0.00 96 1019.5
20260506091550 2 134 0.0 0.0 0.00 0.36 0.00 96 1019.5
20260506090045 2 134 0.0 0.0 0.00 0.36 0.00 95 1019.4
20260506084612 3 134 0.0 1.6 0.00 0.38 0.00 94 1019.8
20260506083039 3 117 0.0 1.6 0.00 0.38 0.00 94 1019.8
20260506081547 3 145 1.6 3.2 0.00 0.38 0.00 95 1019.9
20260506073026 3 82 0.0 0.0 0.00 0.48 0.00 95 1020.1
20260506071521 3 95 0.0 1.6 0.00 0.48 0.00 95 1020.1
20260506061509 3 148 0.0 3.2 0.00 0.53 0.48 96 1019.6
20260506044552 3 126 0.0 1.6 0.00 0.53 0.48 95 1018.7
20260506043049 3 133 0.0 1.6 0.00 0.53 0.48 95 1018.4
20260506041558 3 115 0.0 3.2 0.00 0.53 0.48 95 1018.1
20260506040042 4 108 0.0 1.6 0.00 0.53 0.48 95 1017.8
20260506034539 4 111 0.0 4.8 0.00 0.53 0.48 95 1017.5
20260506033036 3 124 0.0 3.2 0.00 0.53 0.48 94 1017.4
20260506031540 4 106 0.0 4.8 0.00 0.53 0.48 94 1017.1